Location: Unspecified
(0.0000°N, 0.0000°E)
Time: 01:40:39
(UTC+00:00)

SRMSAT - Pass Details

Date: 15 December 2017
Orbit: 849 x 866 km, 20.0° (Epoch: 25 April)

Event Time Altitude Azimuth Distance (km) Brightness Sun altitude
Exits shadow 03:39:08 24° 37° (NE) 1,679 ? -30.9°
Drops below altitude 10° 03:41:41 10° 51° (NE) 2,483 ? -30.3°
Sets 03:44:23 0° 57° (ENE) 3,421 ? -29.7°
